www.pogodaiklimat.ru

Погода и климат >> Архив погоды >> Россия >> Приморский край >> Находка


АРХИВ ПОГОДЫ в Находке

Время (UTC), дата Ветер
(напр.,м/с)
 
Видим.   Явления Облачность Т
(С)
Тd
(С)
f
(%)
Тe
(С)
Тes
(С)
Комфортность P
(гПа)
Po
(гПа)
Тmin
(С)
Tmax
(С)
R
(мм)
R24
(мм)
S
(см)
03 12.02 СЗ 5 20 км ясно -8.7 -24.3 27 -16 -12 по сезону 1031.4 1024.0
06 12.02 З 4 20 км ясно -6.7 -24.8 22 -12 -10 по сезону 1030.1 1022.7
09 12.02 С 4
{11}
20 км ясно -8.3 -26.2 22 -14 -14 по сезону 1031.4 1024.0 -6.6
12 12.02 З 1 20 км ясно -8.7 -26.5 22 -10 -10 по сезону 1031.4 1024.0
15 12.02 В 1 20 км ясно -10.2 -21.2 40 -12 -12 по сезону 1032.8 1025.3
18 12.02 СЗ 5 20 км ясно -10.8 -25.3 29 -18 -18 по сезону 1032.8 1025.3
21 12.02 СЗ 3 20 км ясно -12.7 -24.6 36 -19 -19 по сезону 1031.5 1024.1 -12.9
00 13.02 СВ 1 20 км ясно -11.0 -19.6 49 -13 -10 по сезону 1031.5 1024.1 -13.6
03 13.02 СЗ 5 20 км ясно -7.4 -24.5 24 -14 -10 по сезону 1030.1 1022.7
06 13.02 СЗ 4 20 км ясно -5.7 -24.5 21 -11 -9 по сезону 1028.6 1021.3
09 13.02 СЗ 5
{12}
20 км ясно -6.7 -25.3 21 -13 -13 по сезону 1030.1 1022.7 -5.3
12 13.02 СЗ 3 20 км ясно -7.5 -24.6 24 -13 -13 по сезону 1031.4 1024.0
15 13.02 З 2 20 км ясно -8.0 -23.3 28 -12 -12 по сезону 1032.7 1025.3
18 13.02 СЗ 1 20 км ясно -8.8 -23.6 29 -11 -11 по сезону 1034.1 1026.7
21 13.02 СЗ 2 20 км ясно -11.8 -19.9 51 -16 -16 по сезону 1032.9 1025.5 -13.0
00 14.02 З 2 20 км ясно -7.9 -23.6 27 -12 -9 по сезону 1033.6 1026.3
03 14.02 З 3 20 км ясно -3.5 -24.4 18 -8 -2 тепло 1032.6 1025.3
06 14.02 З 6 20 км ясно -3.6 -20.8 25 -10 -9 по сезону 1030.0 1022.7
09 14.02 З 4
{11}
20 км ясно -5.3 -17.7 37 -11 -11 по сезону 1031.3 1024.0 -3.2
12 14.02 СЗ 1 20 км ясно -5.3 -16.5 41 -7 -7 тепло 1030.0 1022.7
15 14.02 В 1 20 км ясно -10.0 -16.9 57 -12 -12 по сезону 1030.2 1022.7
18 14.02 В 1 20 км ясно -11.4 -16.1 68 -14 -14 по сезону 1028.8 1021.3
21 14.02 В 1 20 км 6/0
[Ac trans]
-10.8 -16.8 61 -13 -13 по сезону 1025.6 1018.3 -11.4
00 15.02 СВ 1 20 км 10/0
[Ac As]
-10.1 -16.6 59 -12 -11 по сезону 1023.9 1016.6
03 15.02 СВ 2 10 км слаб. снег 10 баллов -5.9 -9.3 77 -10 -10 по сезону 1022.0 1014.7
06 15.02 СВ 2 2000 м снег 10 баллов -4.6 -5.6 93 -9 -9 по сезону 1019.2 1012.0
09 15.02 СВ 2 2000 м слаб. снег 10/10 600 м
[Frnb Ns]
-4.6 -5.1 96 -9 -9 по сезону 1016.5 1009.3 -4.3 2
12 15.02 С 2 10 км слаб. снег 10/10 600 м
[Frnb Ns]
-4.2 -4.6 97 -9 -9 по сезону 1015.8 1008.7
15 15.02 С 2 20 км 9 баллов -5.1 -12.7 55 -9 -9 тепло 1016.5 1009.3
18 15.02 СЗ 3 20 км 9 баллов -6.1 -16.6 43 -11 -11 по сезону 1018.0 1010.7
21 15.02 СЗ 3 20 км 4/0
[Ac trans]
-7.5 -18.8 40 -13 -13 по сезону 1016.9 1009.7 -7.8 0.3
00 16.02 З 1 20 км ясно -6.3 -19.3 35 -8 -5 тепло 1018.6 1011.4 -8.3
03 16.02 СЗ 2 20 км ясно -2.6 -15.9 35 -6 +2 тепло 1017.9 1010.7
06 16.02 СЗ 5 20 км ясно -1.5 -17.2 29 -7 -5 по сезону 1015.1 1008.0
09 16.02 СЗ 3
{10}
20 км 1/0
[Cc]
-2.4 -17.6 30 -6 -6 тепло 1016.4 1009.3 -1.0
12 16.02 СЗ 3 20 км ясно -2.9 -18.4 29 -7 -7 тепло 1016.5 1009.3
15 16.02 З 4 20 км ясно -3.3 -19.6 27 -8 -8 тепло 1017.9 1010.7
18 16.02 С 4 20 км ясно -4.7 -19.2 31 -10 -10 тепло 1016.5 1009.3
21 16.02 СЗ 7-13
{13}
20 км ясно -5.2 -19.5 32 -13 -13 по сезону 1015.6 1008.5 -5.5
00 17.02 СЗ 5
{13}
20 км 3/0
[Ac lent]
-3.6 -18.4 31 -10 -8 тепло 1016.7 1009.6
03 17.02 З 4 20 км 2 балла -0.1 -16.0 29 -4 -0 тепло 1016.4 1009.3
06 17.02 З 8 20 км ясно +0.2 -14.9 31 -6 -6 тепло 1015.1 1008.0
09 17.02 З 5
{13}
20 км ясно +0.5 -13.2 35 -4 -4 тепло 1016.4 1009.3 +0.7
12 17.02 СЗ 3 20 км ясно +0.3 -12.0 39 -3 -3 тепло 1017.8 1010.7
15 17.02 СЗ 4 20 км ясно +0.4 -15.6 29 -4 -4 тепло 1019.1 1012.0
18 17.02 СЗ 3 20 км ясно -1.8 -15.6 34 -6 -6 тепло 1021.9 1014.7
21 17.02 З 2
{11}
20 км ясно -1.7 -15.5 34 -5 -5 тепло 1021.4 1014.4 -1.8
00 18.02 В 1 20 км ясно -0.4 -14.3 34 -1 +2 тепло 1023.7 1016.7 -3.1
03 18.02 З 4 50 км ясно +3.4 -14.3 26 0 +5 тепло 1024.4 1017.3
06 18.02 ЮЗ 3 50 км 2 балла +4.8 -14.6 23 +2 +5 тепло 1023.0 1016.0
09 18.02 ЮЗ 3 20 км 3/0
[Cs]
+0.6 -11.4 40 -3 -3 тепло 1023.1 1016.0 +5.0
12 18.02 ЮЗ 1 20 км ясно -1.1 -5.1 74 -3 -3 тепло 1025.9 1018.7
15 18.02 С 1 20 км 6 баллов -2.4 -5.2 81 -5 -5 тепло 1024.5 1017.3
18 18.02 ЮВ 1 20 км 10 баллов -4.3 -5.7 90 -7 -7 тепло 1023.2 1016.0
21 18.02 В 1 20 км 10/0
[Cs]
-3.8 -6.1 84 -6 -6 тепло 1021.2 1014.1 -4.4
00 19.02 В 1 20 км 9/0
[Ac und]
-2.9 -6.7 75 -5 -4 тепло 1021.0 1013.9

 

Местоположение метеостанции Находка (Приморский край, Россия): широта 42.80 долгота 132.80 высота над уровнем моря 56 м.

В архиве по умолчанию представлена погода в Находке за последнюю неделю. Архивные данные за месяц целиком и за предыдущие месяцы, начиная с января 2011 года, Вы можете получить, выбрав интересующий диапазон дат из раскрывающегося списка и нажав кнопку "Ввод!".


*Определитесь, кто Вы:
робот инопланетянин человек

Внимание! Время в таблицах - всемирное. Для получения местного времени необходимо прибавить поправку, которая равна 10 ч.

Смотрите также архив погоды в соседних городах и на ближайших метеорологических станциях:

Погода в Партизанске (Приморский край, Россия) (42 км)
Погода на Мысе Назимова (Приморский край, Россия) (78 км)
Погода в Многоудобном (Приморский край, Россия) (79 км)
Погода в Владивостоке (Приморский край, Россия) (81 км)
Погода в Преображении (Приморский край, Россия) (90 км)
Погода в Лазо (Приморский край, Россия) (105 км)
Погода в Барабаше (Приморский край, Россия) (122 км)
Погода в Анучино (Приморский край, Россия) (131 км)
Погода в Гамове (Приморский край, Россия) (132 км)
Погода в Тимирязевском (Приморский край, Россия) (140 км)

Пояснения к столбцам:

Ветер - указаны скорость ветра в м/с - средняя за 10 мин, порывы в срок и между сроками (в фигурных скобках) и направление, откуда дует ветер: С - северный, СВ - северо-восточный, В - восточный, ЮВ - юго-восточный, Ю - южный, ЮЗ - юго-западный, З - западный, СЗ - северо-западный.
Видимость - горизонтальная дальность видимости в метрах или километрах. При видимости от 1 до 10 км при отсутствии осадков обычно наблюдается дымка, при ухудшении видимости до 1 км и менее - туман. В сухую погоду видимость может ухудшаться дымом, пылью или мглою.
Явления - указаны атмосферные явления, наблюдавшиеся в срок или в последний час перед сроком; фигурными скобками обозначены явления, наблюдавшиеся между сроками (за 1-3 часа до срока); квадратными скобками обозначены град или гололедные отложения с указанием их диаметра в мм.
Облачность - указаны через наклонную черту общая и нижняя облачность в баллах и высота нижней границы облаков в метрах; квадратными скобками обозначены формы облаков: Ci - перистые, Cs - перисто-слоистые, Cc - перисто-кучевые, Ac - высококучевые, As - высокослоистые, Sc - слоисто-кучевые, Ns - слоисто-дождевые, Cu - кучевые, Cb - кучево-дождевые. Подробнее классификацию облаков см. в Атласе облаков (PDF).
T - Температура воздуха - температура, измеренная на высоте 2 м над землей.
Td - Температура точки росы - температура, при понижении до которой содержащийся в воздухе водяной пар достигнет насыщения.
f - Относительная влажность воздуха - влажноcть воздуха, измеренная на высоте 2 м над землей.
Te - Эффективная температура - температура, которую ощущает одетый по сезону человек в тени. Характеристика душности погоды. При расчете учитывается влияние влажности воздуха и скорости ветра на теплоощущения человека.
Tes - Эффективная температура на солнце - температура, которую ощущает человек, с поправкой на солнечный нагрев. Характеристика знойности погоды. Зависит от высоты солнца над горизонтом, облачности и скорости ветра. Ночью, в пасмурную погоду, а также при ветре 12 м/с и более поправка равна нулю.
P - Атмосферное давление - приведенное к уровню моря атмосферное давление.
Po - Атмосферное давление - измеренное на уровне метеостанции атмосферное давление.
Tmin - Минимальная температура - минимум температуры воздуха на высоте 2 м над землей.
Tmax - Максимальная температура - максимум температуры воздуха на высоте 2 м над землей.
R - Количество осадков - Количество выпавших осадков за период времени, мм. При наведении курсора мыши на число - период времени, за который выпало указанное количество осадков.
R24 - Количество осадков - Количество выпавших осадков за 24 часа, мм.
S - Снежный покров - Высота снежного покрова, см. При наведении курсора мыши на число - состояние снежного покрова и степень покрытия местности в баллах.